Radiation Dose at Monitoring Post of Fukushima Daini Nuclear Power Station
Date,Time,MP-1(microSv/h),MP-2(microSv/h),MP-3(microSv/h),MP-4(microSv/h),MP-5(microSv/h),MP-6(microSv/h),MP-7(microSv/h),Wind Direction,Wind Velocity(m/s),Rain
2017/02/12,00:00,0.387,0.229,0.396,0.366,0.334,0.191,0.162,north-northwest,4.6,No
2017/02/12,00:10,0.387,0.231,0.396,0.366,0.337,0.191,0.163,north-northwest,6.8,No
2017/02/12,00:20,0.387,0.229,0.396,0.366,0.334,0.191,0.162,north-northwest,7.0,No
2017/02/12,00:30,0.388,0.230,0.397,0.366,0.335,0.191,0.161,north-northwest,7.2,No
2017/02/12,00:40,0.387,0.231,0.396,0.365,0.332,0.192,0.162,north-northwest,7.2,No
2017/02/12,00:50,0.386,0.229,0.396,0.367,0.333,0.191,0.163,north-northwest,9.4,No
2017/02/12,01:00,0.387,0.229,0.397,0.365,0.335,0.191,0.163,northwest,8.8,No
2017/02/12,01:10,0.388,0.231,0.395,0.365,0.333,0.192,0.162,northwest,7.6,No
2017/02/12,01:20,0.389,0.229,0.396,0.366,0.333,0.190,0.162,north-northwest,4.8,No
2017/02/12,01:30,0.387,0.229,0.397,0.366,0.334,0.192,0.162,north,3.2,No
2017/02/12,01:40,0.387,0.228,0.395,0.366,0.333,0.192,0.162,north,5.6,No
2017/02/12,01:50,0.388,0.228,0.395,0.364,0.333,0.191,0.161,north-northwest,6.4,No
2017/02/12,02:00,0.388,0.229,0.396,0.365,0.333,0.190,0.161,northwest,8.1,No
2017/02/12,02:10,0.388,0.230,0.396,0.366,0.334,0.191,0.161,northwest,10.3,No
2017/02/12,02:20,0.386,0.229,0.396,0.366,0.333,0.191,0.162,northwest,10.3,No
2017/02/12,02:30,0.387,0.229,0.395,0.365,0.334,0.190,0.161,northwest,10.9,No
2017/02/12,02:40,0.388,0.230,0.396,0.365,0.336,0.191,0.162,northwest,9.8,No
2017/02/12,02:50,0.389,0.229,0.396,0.367,0.334,0.190,0.162,northwest,7.5,No
2017/02/12,03:00,0.387,0.229,0.396,0.365,0.333,0.191,0.163,northwest,7.0,No
2017/02/12,03:10,0.386,0.229,0.394,0.365,0.333,0.191,0.162,northwest,9.1,No
2017/02/12,03:20,0.387,0.230,0.396,0.366,0.334,0.191,0.162,west-northwest,9.6,No
2017/02/12,03:30,0.387,0.229,0.398,0.367,0.336,0.191,0.161,northwest,11.2,No
2017/02/12,03:40,0.387,0.228,0.398,0.367,0.334,0.191,0.163,northwest,9.6,No
2017/02/12,03:50,0.388,0.228,0.397,0.366,0.334,0.190,0.162,northwest,8.9,No
2017/02/12,04:00,0.388,0.230,0.398,0.365,0.333,0.191,0.162,west-northwest,8.7,No
2017/02/12,04:10,0.391,0.230,0.398,0.365,0.333,0.192,0.162,west-northwest,9.0,No
2017/02/12,04:20,0.388,0.229,0.398,0.366,0.333,0.191,0.162,northwest,7.6,No
2017/02/12,04:30,0.388,0.229,0.398,0.366,0.335,0.192,0.162,west-northwest,8.8,No
2017/02/12,04:40,0.388,0.231,0.397,0.367,0.334,0.192,0.162,west-northwest,8.0,No
2017/02/12,04:50,0.387,0.230,0.396,0.366,0.333,0.191,0.162,west-northwest,6.7,No
2017/02/12,05:00,0.387,0.229,0.398,0.367,0.334,0.191,0.162,west-northwest,6.7,No
2017/02/12,05:10,0.388,0.229,0.398,0.366,0.336,0.191,0.162,west-northwest,7.9,No
2017/02/12,05:20,0.388,0.229,0.396,0.367,0.334,0.191,0.162,west-northwest,7.9,No
2017/02/12,05:30,0.389,0.230,0.398,0.366,0.333,0.191,0.161,west-northwest,6.7,No
2017/02/12,05:40,0.388,0.229,0.397,0.367,0.333,0.191,0.161,northwest,5.1,No
2017/02/12,05:50,0.390,0.229,0.398,0.367,0.334,0.192,0.163,north-northwest,5.0,No
2017/02/12,06:00,0.389,0.230,0.398,0.367,0.334,0.191,0.162,north,3.3,No
2017/02/12,06:10,0.388,0.228,0.398,0.365,0.335,0.192,0.162,north-northeast,3.1,No
2017/02/12,06:20,0.388,0.228,0.396,0.367,0.333,0.191,0.161,north,2.5,No
2017/02/12,06:30,0.388,0.231,0.396,0.367,0.332,0.191,0.162,north,2.6,No
2017/02/12,06:40,0.389,0.229,0.398,0.367,0.333,0.190,0.162,north,3.7,No
2017/02/12,06:50,0.386,0.228,0.396,0.365,0.334,0.191,0.161,north,3.9,No
2017/02/12,07:00,0.388,0.230,0.397,0.365,0.333,0.191,0.161,north,3.4,No
2017/02/12,07:10,0.388,0.229,0.397,0.365,0.333,0.191,0.163,northwest,5.0,No
2017/02/12,07:20,0.388,0.228,0.397,0.366,0.334,0.191,0.162,northwest,2.5,No
2017/02/12,07:30,0.388,0.228,0.396,0.365,0.333,0.191,0.161,northwest,4.0,No
2017/02/12,07:40,0.388,0.228,0.397,0.366,0.332,0.191,0.163,northwest,4.9,No
2017/02/12,07:50,0.390,0.228,0.397,0.367,0.333,0.190,0.162,west-northwest,4.5,No
2017/02/12,08:00,0.387,0.228,0.398,0.365,0.333,0.191,0.161,northwest,6.1,No
2017/02/12,08:10,0.388,0.229,0.396,0.365,0.333,0.191,0.162,northwest,6.0,No
2017/02/12,08:20,0.386,0.229,0.396,0.367,0.333,0.190,0.161,northwest,7.3,No
2017/02/12,08:30,0.388,0.227,0.396,0.365,0.334,0.190,0.162,northwest,7.8,No
2017/02/12,08:40,0.386,0.229,0.397,0.365,0.334,0.190,0.161,northwest,7.0,No
2017/02/12,08:50,0.387,0.229,0.396,0.367,0.332,0.190,0.161,west-northwest,8.0,No
2017/02/12,09:00,0.387,0.229,0.396,0.367,0.335,0.191,0.162,west-northwest,8.5,No
2017/02/12,09:10,0.388,0.229,0.396,0.365,0.334,0.191,0.163,west-northwest,7.1,No
2017/02/12,09:20,0.389,0.228,0.399,0.367,0.334,0.191,0.161,west-northwest,7.1,No
2017/02/12,09:30,0.387,0.228,0.398,0.367,0.335,0.190,0.163,northwest,8.7,No
2017/02/12,09:40,0.387,0.229,0.396,0.365,0.335,0.192,0.162,west-northwest,8.6,No
2017/02/12,09:50,0.388,0.228,0.397,0.366,0.335,0.190,0.162,west-northwest,9.3,No
2017/02/12,10:00,0.387,0.230,0.397,0.367,0.335,0.191,0.163,west-northwest,6.9,No
2017/02/12,10:10,0.386,0.228,0.396,0.366,0.334,0.191,0.162,west-northwest,5.3,No
2017/02/12,10:20,0.388,0.229,0.395,0.366,0.334,0.191,0.162,northwest,5.5,No
2017/02/12,10:30,0.389,0.228,0.397,0.366,0.334,0.191,0.162,west-northwest,6.2,No
2017/02/12,10:40,0.387,0.229,0.398,0.368,0.334,0.192,0.163,northwest,7.0,No
2017/02/12,10:50,0.386,0.229,0.395,0.365,0.336,0.191,0.162,northwest,7.9,No
2017/02/12,11:00,0.389,0.229,0.396,0.368,0.335,0.191,0.162,west-northwest,6.8,No
2017/02/12,11:10,0.389,0.229,0.397,0.367,0.335,0.191,0.162,northwest,6.8,No
2017/02/12,11:20,0.386,0.229,0.396,0.365,0.336,0.191,0.164,northwest,6.1,No
2017/02/12,11:30,0.389,0.229,0.396,0.368,0.335,0.191,0.162,west-northwest,6.0,No
2017/02/12,11:40,0.388,0.230,0.397,0.366,0.333,0.191,0.162,northwest,6.4,No
2017/02/12,11:50,0.387,0.230,0.397,0.366,0.335,0.191,0.162,west-northwest,6.3,No
2017/02/12,12:00,0.388,0.229,0.396,0.366,0.336,0.190,0.162,northwest,5.6,No
2017/02/12,12:10,0.388,0.229,0.397,0.366,0.334,0.193,0.162,west-northwest,5.6,No
2017/02/12,12:20,0.386,0.229,0.395,0.366,0.334,0.191,0.163,northwest,4.3,No
2017/02/12,12:30,0.388,0.230,0.395,0.368,0.335,0.191,0.161,west-northwest,6.1,No
2017/02/12,12:40,0.385,0.229,0.396,0.366,0.333,0.191,0.163,northwest,6.2,No
2017/02/12,12:50,0.387,0.229,0.394,0.367,0.335,0.192,0.162,west-northwest,5.3,No
2017/02/12,13:00,0.388,0.229,0.398,0.364,0.333,0.190,0.161,west-northwest,5.4,No
2017/02/12,13:10,0.387,0.229,0.395,0.367,0.334,0.191,0.162,west-northwest,6.2,No
2017/02/12,13:20,0.387,0.229,0.394,0.366,0.335,0.191,0.162,northwest,5.5,No
2017/02/12,13:30,0.389,0.229,0.396,0.365,0.333,0.191,0.162,west-northwest,4.7,No
2017/02/12,13:40,0.388,0.230,0.394,0.366,0.335,0.191,0.161,northwest,5.4,No
2017/02/12,13:50,0.388,0.231,0.396,0.365,0.333,0.191,0.162,west-northwest,6.2,No
2017/02/12,14:00,0.390,0.230,0.395,0.367,0.335,0.192,0.163,northwest,6.5,No
2017/02/12,14:10,0.389,0.231,0.395,0.366,0.334,0.191,0.163,northwest,4.3,No
2017/02/12,14:20,0.388,0.229,0.395,0.366,0.333,0.191,0.162,northwest,7.0,No
2017/02/12,14:30,0.389,0.229,0.397,0.366,0.336,0.191,0.163,northwest,7.5,No
2017/02/12,14:40,0.387,0.230,0.397,0.366,0.335,0.191,0.163,north-northwest,3.8,No
2017/02/12,14:50,0.388,0.229,0.399,0.369,0.337,0.191,0.163,north-northwest,5.6,No
2017/02/12,15:00,0.387,0.228,0.398,0.367,0.335,0.190,0.163,northwest,5.0,No
2017/02/12,15:10,0.387,0.230,0.398,0.368,0.334,0.191,0.163,northwest,4.7,No
2017/02/12,15:20,0.388,0.229,0.399,0.369,0.335,0.190,0.162,northwest,6.4,No
2017/02/12,15:30,0.391,0.230,0.398,0.367,0.336,0.191,0.162,northwest,5.3,No
2017/02/12,15:40,0.388,0.231,0.396,0.368,0.335,0.191,0.163,northwest,5.4,No
2017/02/12,15:50,0.388,0.229,0.398,0.368,0.337,0.191,0.163,north-northwest,6.1,No
2017/02/12,16:00,0.388,0.229,0.397,0.367,0.335,0.192,0.163,northwest,6.1,No
2017/02/12,16:10,0.390,0.230,0.396,0.368,0.334,0.191,0.163,west-northwest,6.3,No
2017/02/12,16:20,0.388,0.229,0.398,0.368,0.336,0.191,0.163,northwest,3.9,No
2017/02/12,16:30,0.389,0.229,0.398,0.368,0.336,0.191,0.163,northwest,4.8,No
2017/02/12,16:40,0.391,0.229,0.397,0.368,0.336,0.192,0.163,north-northwest,5.5,No
2017/02/12,16:50,0.388,0.230,0.398,0.367,0.335,0.191,0.163,northwest,2.8,No
2017/02/12,17:00,0.390,0.231,0.400,0.368,0.337,0.191,0.163,north-northwest,3.3,No
2017/02/12,17:10,0.390,0.229,0.397,0.367,0.336,0.192,0.163,northwest,3.5,No
2017/02/12,17:20,0.389,0.228,0.398,0.367,0.334,0.191,0.164,north-northwest,6.3,No
2017/02/12,17:30,0.390,0.231,0.398,0.367,0.336,0.191,0.162,north,3.0,No
2017/02/12,17:40,0.388,0.231,0.398,0.367,0.334,0.192,0.163,north-northwest,3.1,No
2017/02/12,17:50,0.389,0.229,0.399,0.367,0.335,0.191,0.162,north-northwest,6.1,No
2017/02/12,18:00,0.390,0.230,0.398,0.369,0.335,0.191,0.162,north-northwest,6.1,No
2017/02/12,18:10,0.389,0.231,0.399,0.368,0.335,0.192,0.163,north-northwest,7.8,No
2017/02/12,18:20,0.388,0.231,0.398,0.367,0.336,0.192,0.162,northwest,5.5,No
2017/02/12,18:30,0.390,0.229,0.398,0.368,0.335,0.191,0.162,northwest,6.0,No
2017/02/12,18:40,0.391,0.231,0.398,0.367,0.333,0.192,0.163,northwest,5.0,No
2017/02/12,18:50,0.390,0.231,0.399,0.367,0.335,0.191,0.162,north-northwest,6.4,No
2017/02/12,19:00,0.390,0.230,0.400,0.366,0.333,0.192,0.162,north-northwest,5.6,No
2017/02/12,19:10,0.391,0.232,0.398,0.367,0.334,0.191,0.163,north-northwest,3.9,No
2017/02/12,19:20,0.389,0.230,0.397,0.369,0.335,0.191,0.163,north-northwest,4.2,No
2017/02/12,19:30,0.390,0.230,0.398,0.366,0.334,0.191,0.162,north,4.9,No
2017/02/12,19:40,0.388,0.229,0.398,0.366,0.334,0.192,0.162,north,5.3,No
2017/02/12,19:50,0.390,0.230,0.398,0.368,0.334,0.192,0.162,north,6.4,No
2017/02/12,20:00,0.390,0.229,0.397,0.369,0.335,0.191,0.163,north,7.0,No
2017/02/12,20:10,0.390,0.231,0.400,0.368,0.333,0.190,0.162,north,5.6,No
2017/02/12,20:20,0.389,0.230,0.397,0.367,0.333,0.192,0.163,north,6.6,No
2017/02/12,20:30,0.388,0.229,0.396,0.367,0.334,0.191,0.163,north,6.4,No
2017/02/12,20:40,0.390,0.230,0.398,0.368,0.336,0.191,0.162,north,5.8,No
2017/02/12,20:50,0.390,0.230,0.397,0.366,0.335,0.191,0.162,north,5.4,No
2017/02/12,21:00,0.389,0.231,0.399,0.367,0.333,0.191,0.162,north,5.4,No
2017/02/12,21:10,0.389,0.230,0.397,0.367,0.335,0.191,0.163,north,3.9,No
2017/02/12,21:20,0.390,0.230,0.397,0.368,0.334,0.190,0.161,north,4.0,No
2017/02/12,21:30,0.389,0.231,0.398,0.367,0.334,0.192,0.163,north,3.9,No
2017/02/12,21:40,0.389,0.231,0.399,0.365,0.335,0.191,0.163,north,2.2,No
2017/02/12,21:50,0.389,0.230,0.398,0.367,0.334,0.191,0.163,north,3.2,No
2017/02/12,22:00,0.388,0.231,0.396,0.368,0.334,0.191,0.162,north,3.6,No
2017/02/12,22:10,0.389,0.230,0.398,0.366,0.336,0.192,0.162,north-northeast,4.3,No
2017/02/12,22:20,0.388,0.229,0.398,0.366,0.335,0.191,0.163,north,5.1,No
2017/02/12,22:30,0.389,0.229,0.396,0.366,0.336,0.192,0.163,north,5.5,No
2017/02/12,22:40,0.389,0.229,0.398,0.366,0.334,0.191,0.162,north,4.8,No
2017/02/12,22:50,0.390,0.229,0.398,0.369,0.335,0.191,0.163,north,4.6,No
2017/02/12,23:00,0.389,0.229,0.396,0.366,0.334,0.191,0.163,north-northeast,4.8,No
2017/02/12,23:10,0.389,0.230,0.399,0.366,0.334,0.191,0.163,north-northeast,4.3,No
2017/02/12,23:20,0.388,0.229,0.398,0.369,0.333,0.191,0.162,north,4.2,No
2017/02/12,23:30,0.389,0.229,0.398,0.367,0.334,0.192,0.163,north,3.9,No
2017/02/12,23:40,0.390,0.230,0.396,0.365,0.336,0.192,0.162,north,3.2,No
2017/02/12,23:50,0.389,0.229,0.398,0.366,0.334,0.191,0.162,north,3.9,No
